Regional Weather Roundup
Issued by NWS

Home | Current Version | Previous Version | Text Only | Print | Product List | Glossary Off
Versions: 1 2 3 4 5 6 7 8 9 10 11 12 13 14 15 16 17 18 19 20 21 22 23 24 25 26 27 28 29 30 31 32 33 34 35 36 37 38 39 40 41 42 43 44 45 46 47 48 49 50

000
ASUS43 KLSX 051059
RWRMO

WEATHER SUMMARY FOR MISSOURI
NATIONAL WEATHER SERVICE SPRINGFIELD MO
600 AM CDT TUE MAY 05 2015

NOTE: "FAIR" INDICATES FEW OR NO CLOUDS BELOW 12,000 FEET WITH NO
       SIGNIFICANT WEATHER AND/OR OBSTRUCTIONS TO VISIBILITY.
       CURRENT SKY AND/OR WEATHER CONDITIONS ARE NOT AVAILABLE FOR
       CHILLICOTHE AND FARMINGTON.

MOZ001>031-035>038-043-044-053-054-051200-
...NORTHERN AND WESTERN MISSOURI...

CITY           SKY/WX    TMP DP  RH WIND       PRES   REMARKS
KANSAS CTY INT PTCLDY    60  59  96 E7        30.09R
KANSAS C DTWN  MOCLDY    63  58  83 CALM      30.08R
LEE`S SUMMIT   MOCLDY    62  59  90 SE8       30.09S
ST JOSEPH      FOG       57  57 100 SE5       30.08R VSB 1/4
CHILLICOTHE      N/A     58  57  97 CALM      30.12R
KIRKSVILLE     CLOUDY    57  57 100 CALM      30.12R FOG

$$
MOZ066>068-077>081-088>096-101>105-051200-
...SOUTHWEST MISSOURI...

CITY           SKY/WX    TMP DP  RH WIND       PRES   REMARKS
SPRINGFIELD    MOCLDY    62  55  77 SE9       30.14S
JOPLIN         PTCLDY    63  54  72 SE10      30.11S

$$
MOZ032>034-039>042-045>050-055>058-069>072-051200-
...CENTRAL MISSOURI...

CITY           SKY/WX    TMP DP  RH WIND       PRES   REMARKS
COLUMBIA       MOCLDY    62  55  77 S7        30.13R
JEFFERSON CITY PTCLDY    65  55  70 CALM      30.13R
ROLLA          MOCLDY    60  55  83 S8        30.15R
SEDALIA        CLOUDY    63  57  81 S6        30.13R
OSAGE BEACH    CLOUDY    61  54  77 SE3       30.15R

$$
MOZ051-052-059>065-051200-
...EAST CENTRAL MISSOURI...

CITY           SKY/WX    TMP DP  RH WIND       PRES   REMARKS
ST LOUIS INTL  MOCLDY    68  54  60 CALM      30.15R
SPIRIT OF STL  MOCLDY    60  55  83 CALM      30.14R
ST CHARLES     MOCLDY    63  54  72 S6        30.13R

$$
MOZ072>076-082>087-097>100-106>115-051200-
...SOUTH CENTRAL AND SOUTHEAST MISSOURI...

CITY           SKY/WX    TMP DP  RH WIND       PRES   REMARKS
CAPE GIRARDEAU MOCLDY    57  53  86 CALM      30.19R
FARMINGTON     MOCLDY    55  52  88 SE3       30.22R
POPLAR BLUFF   MOCLDY    57  53  86 CALM      30.18R
WEST PLAINS    CLEAR     54  52  93 CALM      30.19R FOG

$$


USA.gov is the U.S. government's official web portal to all federal, state and local government web resources and services.